�N����,����,�~����,�C��,���x,�C��,����,���ϕ���,�ő�u�ԕ���,�ő厞����,���˗�,�I�_���x,�n�����x,�ő啗���N��,DTYPE
"23/11/20","00:10",0.0,4.5,95.4,1009.0,283.5,1.1,2.4,332.1,0.00,3.9,11.4,"00:09:44",1
"23/11/20","00:20",0.0,4.8,95.6,1009.0,322.6,1.6,2.2,319.4,0.00,4.2,11.4,"00:16:02",1
"23/11/20","00:30",0.0,4.6,95.7,1008.6,296.4,1.5,2.6,305.3,0.00,4.0,11.7,"00:21:30",1
"23/11/20","00:40",0.0,4.6,95.9,1008.6,299.7,1.6,2.2,325.2,0.00,4.0,11.4,"00:31:34",1
"23/11/20","00:50",0.0,5.1,96.1,1008.8,304.0,2.1,3.1,309.4,0.00,4.6,11.4,"00:49:52",1
"23/11/20","01:00",0.0,5.4,96.0,1009.3,319.1,2.1,2.9,326.9,0.00,4.9,11.3,"00:51:12",1
"23/11/20","01:10",0.0,5.3,96.1,1009.0,301.6,1.2,2.1,315.3,0.00,4.8,11.3,"01:01:20",1
"23/11/20","01:20",0.0,5.2,96.2,1008.8,302.1,1.2,2.0,311.7,0.00,4.7,11.4,"01:12:48",1
"23/11/20","01:30",0.0,5.0,96.4,1009.3,298.3,1.5,2.2,307.9,0.00,4.5,11.3,"01:21:40",1
"23/11/20","01:40",0.0,4.9,96.5,1009.0,304.5,1.6,2.5,308.1,0.00,4.4,11.2,"01:32:52",1
"23/11/20","01:50",0.0,4.8,96.7,1009.3,306.0,1.5,2.9,323.3,0.00,4.4,11.4,"01:41:16",1
"23/11/20","02:00",0.0,4.8,96.9,1009.0,305.6,1.7,3.1,314.8,0.00,4.4,11.2,"01:53:26",1
"23/11/20","02:10",0.0,4.7,97.0,1009.3,298.4,1.5,2.6,321.5,0.00,4.3,11.3,"02:01:28",1
"23/11/20","02:20",0.0,4.7,97.2,1008.8,294.9,1.1,2.5,322.2,0.00,4.3,11.3,"02:16:48",1
"23/11/20","02:30",0.0,5.1,97.2,1008.6,321.8,1.8,3.2,316.5,0.00,4.7,10.9,"02:26:58",1
"23/11/20","02:40",0.0,5.0,97.3,1008.8,293.5,1.6,2.7,323.4,0.00,4.6,11.1,"02:31:20",1
"23/11/20","02:50",0.0,5.1,97.4,1008.6,293.9,1.7,2.7,323.7,0.00,4.8,11.0,"02:42:00",1
"23/11/20","03:00",0.0,6.0,97.5,1008.6,275.4,2.1,4.2,232.5,0.00,5.7,11.2,"02:54:56",1
"23/11/20","03:10",0.0,6.1,97.2,1008.6,291.7,1.3,2.4,317.4,0.00,5.7,11.2,"03:09:04",1
"23/11/20","03:20",0.0,5.9,97.4,1008.3,301.6,2.0,2.9,322.1,0.00,5.6,11.1,"03:18:40",1
"23/11/20","03:30",0.0,5.6,97.5,1008.3,299.5,1.6,2.5,306.1,0.00,5.3,11.2,"03:20:32",1
"23/11/20","03:40",0.0,5.4,97.6,1008.3,301.5,1.8,2.8,318.3,0.00,5.1,10.9,"03:31:36",1
"23/11/20","03:50",0.0,5.5,97.9,1008.8,300.2,2.1,3.2,312.3,0.00,5.2,11.1,"03:49:28",1
"23/11/20","04:00",0.0,6.2,97.8,1008.6,305.1,2.3,2.9,320.3,0.00,5.9,11.0,"03:55:12",1
"23/11/20","04:10",0.0,6.2,97.6,1008.1,299.7,1.7,3.1,311.9,0.00,5.9,10.9,"04:01:36",1
"23/11/20","04:20",0.0,6.0,97.9,1008.6,318.3,2.3,2.9,318.3,0.00,5.7,11.0,"04:11:28",1
"23/11/20","04:30",0.0,6.2,97.9,1008.6,298.8,2.1,2.7,314.6,0.00,5.9,10.9,"04:27:36",1
"23/11/20","04:40",0.0,6.5,97.9,1008.6,298.1,2.2,2.9,318.3,0.00,6.2,10.8,"04:33:52",1
"23/11/20","04:50",0.0,6.8,97.9,1008.6,298.2,2.1,3.4,263.5,0.00,6.5,10.8,"04:49:28",1
"23/11/20","05:00",0.0,8.1,97.6,1008.6,291.7,2.8,4.3,313.7,0.00,7.8,10.8,"04:58:16",1
"23/11/20","05:10",0.0,8.6,96.8,1008.6,292.9,2.5,3.7,319.8,0.00,8.2,10.7,"05:02:16",1
"23/11/20","05:20",0.0,8.5,96.4,1008.6,292.3,2.2,3.1,318.1,0.00,8.0,10.8,"05:15:04",1
"23/11/20","05:30",0.0,8.4,96.1,1009.0,299.7,2.3,4.1,321.7,0.00,7.9,11.0,"05:28:40",1
"23/11/20","05:40",0.0,8.7,95.7,1009.3,309.8,2.7,4.3,323.5,0.00,8.1,11.0,"05:39:36",1
"23/11/20","05:50",0.0,9.3,94.7,1009.0,305.7,2.8,4.7,324.3,0.00,8.5,10.7,"05:47:32",1
"23/11/20","06:00",0.0,9.6,93.5,1009.7,304.3,2.6,4.4,298.1,0.00,8.6,10.9,"05:51:28",1
"23/11/20","06:10",0.0,10.0,91.6,1009.5,281.7,2.3,4.1,252.6,0.00,8.7,10.9,"06:03:54",1
"23/11/20","06:20",0.0,10.3,88.6,1010.0,286.7,2.5,4.2,303.3,0.00,8.5,10.8,"06:19:06",1
"23/11/20","06:30",0.0,10.4,85.5,1010.2,311.7,2.2,3.7,330.7,0.00,8.1,11.0,"06:23:40",1
"23/11/20","06:40",0.0,10.2,83.5,1010.2,320.3,2.0,2.6,341.1,0.00,7.6,10.8,"06:30:32",1
"23/11/20","06:50",0.0,9.7,83.1,1010.7,320.1,0.7,2.0,252.3,0.00,7.0,10.9,"06:49:06",1
"23/11/20","07:00",0.0,9.4,84.0,1010.9,287.0,0.8,2.2,264.6,0.00,6.9,10.9,"06:52:54",1
"23/11/20","07:10",0.0,9.3,85.4,1011.2,296.3,1.3,3.7,327.4,0.00,7.0,10.9,"07:09:38",1
"23/11/20","07:20",0.0,10.7,84.6,1010.9,294.4,2.6,4.7,317.7,0.00,8.3,10.7,"07:10:54",1
"23/11/20","07:30",0.0,10.8,83.5,1011.2,297.8,2.5,4.4,332.5,0.00,8.2,11.0,"07:29:14",1
"23/11/20","07:40",0.0,11.3,82.1,1011.4,299.9,2.3,3.5,279.0,0.04,8.4,11.1,"07:38:58",1
"23/11/20","07:50",0.0,11.6,80.5,1011.9,296.2,2.0,4.2,317.5,0.04,8.4,10.8,"07:40:08",1
"23/11/20","08:00",0.0,11.8,79.5,1012.1,286.8,2.2,4.4,238.9,0.05,8.4,10.8,"07:57:00",1
"23/11/20","08:10",0.0,12.2,78.2,1012.3,302.0,2.0,4.1,338.6,0.08,8.6,10.9,"08:01:52",1
"23/11/20","08:20",0.0,12.4,77.6,1012.3,282.0,2.1,4.9,260.1,0.04,8.6,10.9,"08:18:02",1
"23/11/20","08:30",0.0,12.1,78.2,1012.6,276.5,1.6,3.7,307.9,0.05,8.5,10.8,"08:24:42",1
"23/11/20","08:40",0.0,12.3,79.5,1012.6,307.3,2.0,5.0,339.1,0.18,8.9,11.0,"08:35:18",1
"23/11/20","08:50",0.0,12.5,79.8,1013.0,293.8,2.0,4.0,313.7,0.12,9.2,11.0,"08:45:12",1
"23/11/20","09:00",0.0,12.6,80.4,1013.3,307.4,2.5,5.1,350.7,0.13,9.4,10.8,"08:55:20",1
"23/11/20","09:10",0.0,13.0,80.4,1012.8,308.6,2.1,4.8,330.8,0.21,9.7,10.9,"09:08:08",1
"23/11/20","09:20",0.0,13.4,78.8,1012.8,309.0,2.6,4.9,344.0,0.27,9.8,11.2,"09:17:56",1
"23/11/20","09:30",0.0,13.9,76.8,1012.8,308.3,2.7,5.2,310.5,0.29,9.9,11.2,"09:20:48",1
"23/11/20","09:40",0.0,13.9,73.9,1013.3,323.6,3.7,7.1,342.8,0.31,9.4,11.2,"09:38:48",1
"23/11/20","09:50",0.0,14.0,71.9,1013.0,332.8,4.2,8.0,332.1,0.33,9.1,11.2,"09:49:44",1
"23/11/20","10:00",0.0,14.4,70.8,1013.3,323.4,3.6,10.3,346.0,0.34,9.2,11.1,"09:50:56",1
"23/11/20","10:10",0.0,14.5,69.4,1013.5,324.3,3.4,6.7,341.0,0.36,9.0,11.4,"10:08:48",1
"23/11/20","10:20",0.0,14.6,69.3,1013.3,317.4,2.6,5.6,340.3,0.32,9.1,11.4,"10:18:16",1
"23/11/20","10:30",0.0,14.9,68.2,1013.5,326.7,2.6,5.4,340.2,0.36,9.1,11.3,"10:21:12",1
"23/11/20","10:40",0.0,14.9,67.5,1013.5,337.8,2.8,7.4,357.7,0.31,9.0,11.4,"10:39:04",1
"23/11/20","10:50",0.0,14.8,66.2,1013.5,337.7,3.2,6.0,340.7,0.30,8.6,11.4,"10:40:16",1
"23/11/20","11:00",0.0,14.8,64.5,1013.3,320.6,3.7,7.1,354.1,0.31,8.2,11.5,"10:55:20",1
"23/11/20","11:10",0.0,15.1,63.4,1013.0,321.8,3.9,8.6,320.7,0.40,8.2,11.6,"11:07:28",1
"23/11/20","11:20",0.0,15.2,63.3,1012.8,338.9,4.2,8.2,336.1,0.38,8.3,11.7,"11:12:24",1
"23/11/20","11:30",0.0,15.9,61.2,1013.3,342.2,2.5,6.0,311.6,0.42,8.5,12.0,"11:27:26",1
"23/11/20","11:40",0.0,15.9,60.6,1012.6,317.5,2.8,9.1,39.6,0.40,8.3,11.7,"11:31:44",1
"23/11/20","11:50",0.0,15.8,58.7,1012.6,302.2,2.6,6.2,345.0,0.27,7.8,11.9,"11:46:48",1
"23/11/20","12:00",0.0,16.0,57.9,1013.0,326.7,2.0,5.0,340.4,0.31,7.8,12.0,"11:53:52",1
"23/11/20","12:10",0.0,15.0,58.4,1013.0,323.6,3.2,7.4,324.4,0.09,7.0,11.9,"12:07:46",1
"23/11/20","12:20",0.0,15.8,57.9,1013.3,305.5,2.7,7.2,343.2,0.33,7.6,12.2,"12:17:20",1
"23/11/20","12:30",0.0,14.9,58.9,1013.0,326.5,3.7,6.7,355.4,0.12,7.0,12.0,"12:27:22",1
"23/11/20","12:40",0.0,14.2,63.9,1013.3,304.0,3.1,5.2,258.7,0.09,7.5,12.3,"12:37:54",1
"23/11/20","12:50",0.0,13.7,67.2,1013.8,293.5,2.6,6.2,310.2,0.11,7.8,12.2,"12:48:32",1
"23/11/20","13:00",0.0,13.6,70.0,1013.5,280.6,2.3,5.5,347.0,0.15,8.3,12.2,"12:58:10",1
"23/11/20","13:10",0.0,14.5,70.0,1013.5,277.6,2.3,4.9,251.5,0.39,9.1,12.2,"13:04:24",1
"23/11/20","13:20",0.0,15.2,67.1,1013.8,275.4,2.5,6.0,294.2,0.40,9.2,12.4,"13:10:16",1
"23/11/20","13:30",0.0,15.0,65.9,1014.0,316.6,2.5,4.8,248.3,0.20,8.7,12.4,"13:20:32",1
"23/11/20","13:40",0.0,14.8,67.1,1013.8,308.3,2.0,4.7,322.1,0.17,8.8,12.4,"13:31:44",1
"23/11/20","13:50",0.0,14.6,65.8,1014.2,332.8,2.0,4.9,352.3,0.12,8.3,12.3,"13:44:24",1
"23/11/20","14:00",0.0,13.8,68.2,1014.2,335.6,2.5,4.3,326.6,0.06,8.1,12.4,"13:58:46",1
"23/11/20","14:10",0.0,13.4,70.8,1014.7,326.7,2.0,2.9,344.0,0.07,8.3,12.6,"14:06:32",1
"23/11/20","14:20",0.0,13.2,72.2,1014.7,303.2,1.7,3.7,324.9,0.05,8.3,12.6,"14:10:50",1
"23/11/20","14:30",0.0,13.7,73.6,1014.5,279.9,1.6,4.2,240.7,0.18,9.1,12.5,"14:26:16",1
"23/11/20","14:40",0.0,13.8,73.0,1015.2,263.8,1.6,2.9,246.1,0.14,9.1,12.7,"14:30:08",1
"23/11/20","14:50",0.0,13.4,72.4,1014.9,305.3,1.7,4.3,293.4,0.04,8.6,12.7,"14:41:12",1
"23/11/20","15:00",0.0,13.2,72.3,1014.9,322.2,1.8,3.4,304.3,0.05,8.4,12.6,"14:58:18",1
"23/11/20","15:10",0.0,13.3,72.5,1015.2,305.6,1.5,3.1,274.8,0.05,8.5,12.7,"15:05:08",1
"23/11/20","15:20",0.0,13.2,73.0,1015.2,292.9,1.3,2.8,240.5,0.05,8.5,12.4,"15:17:44",1
"23/11/20","15:30",0.0,13.0,73.0,1015.4,313.0,2.0,3.6,276.5,0.06,8.3,12.7,"15:23:02",1
"23/11/20","15:40",0.0,12.9,72.9,1015.4,284.9,2.1,5.5,239.8,0.04,8.2,12.7,"15:33:42",1
"23/11/20","15:50",0.0,13.1,72.8,1015.4,313.5,1.2,2.7,307.4,0.05,8.4,12.6,"15:41:20",1
"23/11/20","16:00",0.0,13.1,72.2,1015.9,325.7,1.1,2.1,320.6,0.03,8.3,12.7,"15:53:46",1
"23/11/20","16:10",0.0,12.8,71.7,1015.6,293.7,1.3,2.7,41.5,0.01,7.9,12.7,"16:00:56",1
"23/11/20","16:20",0.0,12.5,71.6,1015.4,299.9,2.0,3.3,237.9,0.00,7.6,12.6,"16:16:38",1
"23/11/20","16:30",0.0,12.2,71.8,1016.1,320.3,1.6,2.6,342.6,0.00,7.3,12.6,"16:21:36",1
"23/11/20","16:40",0.0,12.1,71.9,1016.4,282.3,1.7,2.9,246.7,0.00,7.2,12.5,"16:37:32",1
"23/11/20","16:50",0.0,11.9,72.0,1016.4,298.1,1.7,2.8,308.3,0.00,7.1,12.7,"16:43:06",1
"23/11/20","17:00",0.0,11.6,72.3,1016.4,320.6,2.1,3.4,323.8,0.00,6.8,12.6,"16:57:08",1
"23/11/20","17:10",0.0,11.6,71.6,1016.8,313.9,2.0,3.1,337.6,0.00,6.7,12.7,"17:00:42",1
"23/11/20","17:20",0.0,11.5,71.4,1016.6,307.2,2.0,3.9,344.3,0.00,6.6,12.7,"17:14:46",1
"23/11/20","17:30",0.0,11.3,71.4,1016.6,298.0,1.8,3.6,310.6,0.00,6.4,12.5,"17:21:50",1
"23/11/20","17:40",0.0,11.1,71.6,1016.6,311.5,2.1,4.1,346.2,0.00,6.2,12.6,"17:39:26",1
"23/11/20","17:50",0.0,11.0,71.2,1017.1,308.1,1.8,3.7,322.5,0.00,6.0,12.6,"17:40:24",1
"23/11/20","18:00",0.0,11.0,71.5,1017.1,319.3,2.0,3.7,317.8,0.00,6.1,12.6,"17:54:16",1
"23/11/20","18:10",0.0,10.4,72.3,1017.1,319.1,1.6,2.7,332.7,0.00,5.7,12.3,"18:00:16",1
"23/11/20","18:20",0.0,9.9,73.6,1016.8,320.0,1.3,2.1,343.2,0.00,5.5,12.7,"18:14:48",1
"23/11/20","18:30",0.0,9.3,75.3,1017.1,318.3,1.5,2.4,315.1,0.00,5.2,12.5,"18:27:44",1
"23/11/20","18:40",0.0,9.3,76.0,1017.1,318.5,1.3,3.2,324.3,0.00,5.3,12.5,"18:30:08",1
"23/11/20","18:50",0.0,9.0,77.0,1017.5,300.1,1.5,2.1,308.7,0.00,5.2,12.3,"18:45:28",1
"23/11/20","19:00",0.0,8.8,77.7,1017.5,309.9,1.5,2.8,344.8,0.00,5.2,12.2,"18:50:56",1
"23/11/20","19:10",0.0,8.4,78.4,1017.5,301.8,1.5,2.8,322.7,0.00,4.9,12.2,"19:06:40",1
"23/11/20","19:20",0.0,7.9,79.5,1017.5,312.1,2.1,2.8,312.6,0.00,4.6,12.3,"19:13:36",1
"23/11/20","19:30",0.0,7.4,81.1,1017.5,303.3,1.1,1.9,287.2,0.00,4.4,12.4,"19:20:56",1
"23/11/20","19:40",0.0,7.1,82.6,1017.5,303.7,1.6,2.9,328.8,0.00,4.4,12.2,"19:31:20",1
"23/11/20","19:50",0.0,6.4,83.9,1017.3,294.7,1.5,2.1,308.2,0.00,3.9,12.1,"19:45:54",1
"23/11/20","20:00",0.0,6.2,85.1,1017.8,309.3,1.6,2.2,315.6,0.00,3.9,12.0,"19:50:24",1
"23/11/20","20:10",0.0,5.9,86.2,1017.5,306.0,1.5,2.6,326.1,0.00,3.8,12.2,"20:06:30",1
"23/11/20","20:20",0.0,5.9,87.2,1017.5,313.0,1.7,2.2,326.8,0.00,4.0,12.1,"20:13:36",1
"23/11/20","20:30",0.0,5.8,88.1,1017.3,319.8,1.7,2.2,322.1,0.00,4.0,12.1,"20:26:04",1
"23/11/20","20:40",0.0,5.6,88.8,1017.5,325.9,1.3,1.8,351.8,0.00,3.9,12.0,"20:31:08",1
"23/11/20","20:50",0.0,5.4,89.5,1017.5,322.2,1.0,1.7,334.2,0.00,3.9,11.9,"20:40:12",1
"23/11/20","21:00",0.0,5.1,89.9,1017.5,315.2,1.0,1.4,308.4,0.00,3.6,11.7,"20:51:32",1
"23/11/20","21:10",0.0,5.0,90.6,1018.0,277.4,0.8,0.9,276.9,0.00,3.6,11.7,"21:05:36",1
"23/11/20","21:20",0.0,5.2,91.0,1017.8,301.3,2.0,2.0,294.1,0.00,3.9,11.8,"21:17:48",1
"23/11/20","21:30",0.0,5.6,91.3,1017.5,307.0,2.0,2.7,322.5,0.00,4.3,11.7,"21:23:28",1
"23/11/20","21:40",0.0,5.5,91.7,1017.5,305.7,1.6,2.1,300.4,0.00,4.3,11.8,"21:30:42",1
"23/11/20","21:50",0.0,5.2,92.0,1017.8,304.0,1.5,1.6,320.8,0.00,4.0,11.7,"21:41:50",1
"23/11/20","22:00",0.0,5.2,92.5,1017.5,296.6,1.6,2.0,318.9,0.00,4.1,11.4,"21:55:14",1
"23/11/20","22:10",0.0,5.6,92.8,1017.8,288.2,1.7,2.8,309.6,0.00,4.6,11.7,"22:01:46",1
"23/11/20","22:20",0.0,5.6,93.0,1017.8,304.3,1.3,2.7,332.1,0.00,4.6,11.5,"22:18:58",1
"23/11/20","22:30",0.0,6.1,93.0,1018.0,314.3,2.7,4.1,316.6,0.00,5.1,11.4,"22:28:36",1
"23/11/20","22:40",0.0,6.3,92.7,1018.2,305.3,2.6,3.4,287.9,0.00,5.2,11.4,"22:30:08",1
"23/11/20","22:50",0.0,6.4,92.4,1018.2,309.2,2.7,5.2,340.7,0.00,5.3,11.5,"22:49:18",1
"23/11/20","23:00",0.0,6.4,92.1,1018.2,313.8,2.8,4.3,324.1,0.00,5.3,11.4,"22:55:22",1
"23/11/20","23:10",0.0,6.4,91.6,1018.0,320.6,2.6,4.3,340.3,0.00,5.2,11.5,"23:05:12",1
"23/11/20","23:20",0.0,6.2,91.3,1018.0,328.7,2.2,3.7,310.3,0.00,4.9,11.2,"23:10:18",1
"23/11/20","23:30",0.0,6.2,91.1,1018.0,327.1,2.5,4.0,330.8,0.00,4.9,11.2,"23:22:10",1
"23/11/20","23:40",0.0,6.0,90.9,1017.8,316.7,1.7,2.9,327.5,0.00,4.7,11.2,"23:34:50",1
"23/11/20","23:50",0.0,5.7,90.9,1018.0,332.8,1.3,2.1,317.9,0.00,4.4,11.3,"23:40:08",1
"23/11/20","24:00",0.0,5.3,90.8,1017.8,297.2,1.5,1.9,298.0,0.00,4.0,11.1,"23:54:52",1
